,,Stat6,,Stat2,,Stat8,,Stat9,,Stat10,,Wind1,,Wind1,
time,status,PA1M_AVG,status,PR1M_SUM,status,RH1M_AVG,status,SR1M_AVG,status,TA1M_AVG,status,W1dAve1m,status,W1sAve1m,
2006-02-25, 00:00:01,VALID,916.566,VALID,0,VALID,100,VALID,0.118866,VALID,19.6674,VALID,51,VALID,0.0254836,
2006-02-25, 00:01:01,VALID,916.568,VALID,0,VALID,100,VALID,0.118866,VALID,19.6773,VALID,51,VALID,0,
2006-02-25, 00:02:00,VALID,916.56,VALID,0,VALID,100,VALID,0.101885,VALID,19.6908,VALID,51,VALID,0,
2006-02-25, 00:03:01,VALID,916.551,VALID,0,VALID,100,VALID,0.118866,VALID,19.7034,VALID,51,VALID,0,
2006-02-25, 00:04:00,VALID,916.55,VALID,0,VALID,100,VALID,0.101885,VALID,19.7131,VALID,51,VALID,0,
2006-02-25, 00:05:00,VALID,916.555,VALID,0,VALID,100,VALID,0.118866,VALID,19.7191,VALID,51,VALID,0.0321181,
2006-02-25, 00:06:01,VALID,916.549,VALID,0,VALID,100,VALID,0.152827,VALID,19.7161,VALID,51,VALID,0.228849,
2006-02-25, 00:07:00,VALID,916.56,VALID,0,VALID,100,VALID,0.118866,VALID,19.6972,VALID,51,VALID,0.497337,
2006-02-25, 00:08:00,VALID,916.561,VALID,0,VALID,100,VALID,-0.0169808,VALID,19.6724,VALID,54,VALID,0.639205,
2006-02-25, 00:09:00,VALID,916.568,VALID,0,VALID,100,VALID,0.0509425,VALID,19.6522,VALID,55,VALID,0.440518,
2006-02-25, 00:10:01,VALID,916.549,VALID,0,VALID,100,VALID,0.0169808,VALID,19.6634,VALID,55,VALID,0.450763,
2006-02-25, 00:11:00,VALID,916.55,VALID,0,VALID,100,VALID,0.0339617,VALID,19.6497,VALID,55,VALID,0.409784,
2006-02-25, 00:12:00,VALID,916.54,VALID,0,VALID,100,VALID,0.0169808,VALID,19.6234,VALID,55,VALID,0.332741,
2006-02-25, 00:13:00,VALID,916.524,VALID,0,VALID,100,VALID,0.0339617,VALID,19.6502,VALID,55,VALID,0.208519,
2006-02-25, 00:14:01,VALID,916.512,VALID,0,VALID,100,VALID,0.0339617,VALID,19.6438,VALID,55,VALID,0.0554142,
2006-02-25, 00:15:01,VALID,916.502,VALID,0,VALID,100,VALID,0.0339617,VALID,19.647,VALID,55,VALID,0.000177557,
2006-02-25, 00:16:00,VALID,916.496,VALID,0,VALID,100,VALID,0.0339617,VALID,19.6462,VALID,55,VALID,0.15987,
2006-02-25, 00:17:01,VALID,916.483,VALID,0,VALID,100,VALID,0.0339617,VALID,19.6659,VALID,55,VALID,0.141369,
2006-02-25, 00:18:01,VALID,916.466,VALID,0,VALID,100,VALID,0.0169808,VALID,19.6627,VALID,55,VALID,0,
2006-02-25, 00:19:00,VALID,916.449,VALID,0,VALID,100,VALID,-0.0169808,VALID,19.6592,VALID,55,VALID,0,
2006-02-25, 00:20:00,VALID,916.428,VALID,0,VALID,100,VALID,0.0509425,VALID,19.6917,VALID,55,VALID,0,
2006-02-25, 00:21:01,VALID,916.416,VALID,0,VALID,100,VALID,0.0679233,VALID,19.688,VALID,55,VALID,0,
2006-02-25, 00:22:01,VALID,916.371,VALID,0,VALID,100,VALID,0.0169808,VALID,19.7084,VALID,55,VALID,0,
2006-02-25, 00:23:00,VALID,916.354,VALID,0,VALID,100,VALID,0.0339617,VALID,19.7208,VALID,55,VALID,0,
2006-02-25, 00:24:00,VALID,916.332,VALID,0,VALID,100,VALID,0.0169808,VALID,19.7174,VALID,55,VALID,0,
2006-02-25, 00:25:01,VALID,916.304,VALID,0,VALID,100,VALID,0,VALID,19.7377,VALID,55,VALID,0,
2006-02-25, 00:26:00,VALID,916.293,VALID,0,VALID,100,VALID,0.0339617,VALID,19.734,VALID,55,VALID,0,
2006-02-25, 00:27:00,VALID,916.279,VALID,0,VALID,100,VALID,0.0339617,VALID,19.7333,VALID,55,VALID,0.00727983,
2006-02-25, 00:28:01,VALID,916.266,VALID,0,VALID,100,VALID,0,VALID,19.7529,VALID,33,VALID,0.264881,
2006-02-25, 00:29:00,VALID,916.26,VALID,0,VALID,100,VALID,0,VALID,19.7591,VALID,20,VALID,0.33718,
2006-02-25, 00:30:00,VALID,916.26,VALID,0,VALID,100,VALID,0,VALID,19.7626,VALID,20,VALID,0.158736,
2006-02-25, 00:31:00,VALID,916.254,VALID,0,VALID,100,VALID,0.0339617,VALID,19.7621,VALID,20,VALID,0,
2006-02-25, 00:32:00,VALID,916.252,VALID,0,VALID,100,VALID,0.0169808,VALID,19.7726,VALID,20,VALID,0,
2006-02-25, 00:33:00,VALID,916.256,VALID,0,VALID,100,VALID,0.0509425,VALID,19.7855,VALID,20,VALID,0,
2006-02-25, 00:34:01,VALID,916.262,VALID,0,VALID,100,VALID,0.0339617,VALID,19.782,VALID,20,VALID,0,
2006-02-25, 00:35:01,VALID,916.267,VALID,0,VALID,100,VALID,0.101885,VALID,19.7653,VALID,20,VALID,0.12391,
2006-02-25, 00:36:01,VALID,916.272,VALID,0,VALID,100,VALID,0.0509425,VALID,19.7753,VALID,20,VALID,0.0182927,
2006-02-25, 00:37:01,VALID,916.277,VALID,0,VALID,100,VALID,0.0339617,VALID,19.7718,VALID,20,VALID,0,
2006-02-25, 00:38:00,VALID,916.282,VALID,0,VALID,100,VALID,0.0679233,VALID,19.7788,VALID,20,VALID,0,
2006-02-25, 00:39:00,VALID,916.282,VALID,0,VALID,100,VALID,0.0339617,VALID,19.788,VALID,20,VALID,0,
2006-02-25, 00:40:00,VALID,916.281,VALID,0,VALID,100,VALID,0.0169808,VALID,19.8146,VALID,20,VALID,0,
2006-02-25, 00:41:01,VALID,916.266,VALID,0,VALID,100,VALID,0.0679233,VALID,19.7914,VALID,20,VALID,0,
2006-02-25, 00:42:01,VALID,916.258,VALID,0,VALID,100,VALID,0.0679233,VALID,19.7922,VALID,20,VALID,0.0727983,
2006-02-25, 00:43:00,VALID,916.24,VALID,0,VALID,100,VALID,0.0339617,VALID,19.7723,VALID,20,VALID,0.15625,
2006-02-25, 00:44:00,VALID,916.219,VALID,0,VALID,100,VALID,0.0169808,VALID,19.7693,VALID,20,VALID,0.0836293,
2006-02-25, 00:45:01,VALID,916.208,VALID,0,VALID,100,VALID,0,VALID,19.7857,VALID,20,VALID,0.0625,
2006-02-25, 00:46:01,VALID,916.19,VALID,0,VALID,100,VALID,0,VALID,19.7691,VALID,20,VALID,0.0218395,
2006-02-25, 00:47:00,VALID,916.173,VALID,0,VALID,100,VALID,0.0509425,VALID,19.7529,VALID,20,VALID,0.0441406,
2006-02-25, 00:48:00,VALID,916.161,VALID,0,VALID,100,VALID,0.0169808,VALID,19.7591,VALID,20,VALID,0,
2006-02-25, 00:49:00,VALID,916.153,VALID,0,VALID,100,VALID,0.0339617,VALID,19.7629,VALID,20,VALID,0.145349,
2006-02-25, 00:50:01,VALID,916.151,VALID,0,VALID,100,VALID,0.0169808,VALID,19.7658,VALID,20,VALID,0.155506,
2006-02-25, 00:51:00,VALID,916.126,VALID,0,VALID,100,VALID,0.0169808,VALID,19.7825,VALID,20,VALID,0,
2006-02-25, 00:52:00,VALID,916.129,VALID,0,VALID,100,VALID,-0.0169808,VALID,19.7755,VALID,20,VALID,0.0519622,
2006-02-25, 00:53:00,VALID,916.117,VALID,0,VALID,100,VALID,-0.0679233,VALID,19.7932,VALID,20,VALID,0.0291667,
2006-02-25, 00:54:01,VALID,916.109,VALID,0,VALID,100,VALID,-0.101885,VALID,19.7997,VALID,20,VALID,0,
2006-02-25, 00:55:00,VALID,916.086,VALID,0,VALID,100,VALID,-0.0849042,VALID,19.7997,VALID,20,VALID,0,
2006-02-25, 00:56:01,VALID,916.063,VALID,0,VALID,100,VALID,-0.0509425,VALID,19.7964,VALID,20,VALID,0,
2006-02-25, 00:57:00,VALID,916.059,VALID,0,VALID,100,VALID,-0.101885,VALID,19.8031,VALID,20,VALID,0,
2006-02-25, 00:58:00,VALID,916.049,VALID,0,VALID,100,VALID,-0.0849042,VALID,19.7964,VALID,20,VALID,0,
2006-02-25, 00:59:01,VALID,916.046,VALID,0,VALID,100,VALID,-0.101885,VALID,19.8161,VALID,20,VALID,0,
2006-02-25, 01:00:00,VALID,916.04,VALID,0,VALID,100,VALID,-0.0849042,VALID,19.8322,VALID,20,VALID,0.00381541,
2006-02-25, 01:01:01,VALID,916.042,VALID,0,VALID,100,VALID,-0.0679233,VALID,19.8382,VALID,20,VALID,0.0770089,
2006-02-25, 01:02:00,VALID,916.032,VALID,0,VALID,100,VALID,-0.0849042,VALID,19.8581,VALID,20,VALID,0.010831,
2006-02-25, 01:03:00,VALID,916.031,VALID,0,VALID,100,VALID,-0.0849042,VALID,19.874,VALID,20,VALID,0,
2006-02-25, 01:04:00,VALID,916.035,VALID,0,VALID,100,VALID,-0.101885,VALID,19.884,VALID,20,VALID,0,
2006-02-25, 01:05:00,VALID,916.025,VALID,0,VALID,100,VALID,-0.101885,VALID,19.8939,VALID,20,VALID,0,
2006-02-25, 01:06:01,VALID,916.017,VALID,0,VALID,100,VALID,-0.0679233,VALID,19.8904,VALID,20,VALID,0,
2006-02-25, 01:07:01,VALID,916.015,VALID,0,VALID,100,VALID,-0.0679233,VALID,19.8837,VALID,20,VALID,0,
2006-02-25, 01:08:00,VALID,916.013,VALID,0,VALID,100,VALID,0.0169808,VALID,19.8964,VALID,20,VALID,0,
2006-02-25, 01:09:00,VALID,916.001,VALID,0,VALID,100,VALID,-0.0169808,VALID,19.8825,VALID,20,VALID,0,
2006-02-25, 01:10:00,VALID,916.008,VALID,0,VALID,100,VALID,-0.0339617,VALID,19.9026,VALID,20,VALID,0,
2006-02-25, 01:11:01,VALID,915.995,VALID,0,VALID,100,VALID,0,VALID,19.8994,VALID,20,VALID,0,
2006-02-25, 01:12:01,VALID,915.989,VALID,0,VALID,100,VALID,0,VALID,19.8959,VALID,20,VALID,0,
2006-02-25, 01:13:00,VALID,915.991,VALID,0,VALID,100,VALID,0,VALID,19.8924,VALID,20,VALID,0,
2006-02-25, 01:14:00,VALID,915.97,VALID,0,VALID,100,VALID,0,VALID,19.8733,VALID,20,VALID,0.0383358,
2006-02-25, 01:15:01,VALID,915.964,VALID,0,VALID,100,VALID,0,VALID,19.8506,VALID,20,VALID,0.317086,
2006-02-25, 01:16:01,VALID,915.964,VALID,0,VALID,100,VALID,0,VALID,19.824,VALID,18,VALID,0.351381,
2006-02-25, 01:17:01,VALID,915.945,VALID,0,VALID,100,VALID,-0.0169808,VALID,19.8312,VALID,282,VALID,0.59096,
2006-02-25, 01:18:01,VALID,915.924,VALID,0,VALID,100,VALID,-0.0339617,VALID,19.8178,VALID,244,VALID,0.749619,
2006-02-25, 01:19:01,VALID,915.922,VALID,0,VALID,100,VALID,-0.0339617,VALID,19.8151,VALID,241,VALID,0.58631,
2006-02-25, 01:20:01,VALID,915.926,VALID,0,VALID,100,VALID,-0.0169808,VALID,19.8215,VALID,241,VALID,0.428779,
2006-02-25, 01:21:01,VALID,915.917,VALID,0,VALID,100,VALID,0,VALID,19.8218,VALID,241,VALID,0.296875,
2006-02-25, 01:22:01,VALID,915.894,VALID,0,VALID,100,VALID,0,VALID,19.8183,VALID,241,VALID,0.141555,
2006-02-25, 01:23:01,VALID,915.911,VALID,0,VALID,100,VALID,-0.0169808,VALID,19.828,VALID,241,VALID,0.00837054,
2006-02-25, 01:24:01,VALID,915.92,VALID,0.2,VALID,100,VALID,-0.0509425,VALID,19.8317,VALID,241,VALID,0,
2006-02-25, 01:25:01,VALID,915.892,VALID,0.2,VALID,100,VALID,0,VALID,19.8506,VALID,241,VALID,0,
2006-02-25, 01:26:01,VALID,915.881,VALID,0.2,VALID,100,VALID,-0.0339617,VALID,19.8668,VALID,241,VALID,0.0954861,
2006-02-25, 01:27:01,VALID,915.856,VALID,0,VALID,100,VALID,0,VALID,19.8762,VALID,241,VALID,0.425586,
2006-02-25, 01:28:01,VALID,915.844,VALID,0.2,VALID,100,VALID,-0.0339617,VALID,19.8641,VALID,241,VALID,0.591704,
2006-02-25, 01:29:00,VALID,915.82,VALID,0,VALID,100,VALID,-0.0339617,VALID,19.8471,VALID,241,VALID,0.636991,
2006-02-25, 01:30:01,VALID,915.8,VALID,0,VALID,100,VALID,0,VALID,19.8608,VALID,257,VALID,0.518169,
2006-02-25, 01:31:01,VALID,915.79,VALID,0.2,VALID,100,VALID,0.0169808,VALID,19.8568,VALID,248,VALID,0.28125,
2006-02-25, 01:32:01,VALID,915.78,VALID,0.2,VALID,100,VALID,-0.0339617,VALID,19.8437,VALID,236,VALID,0.28457,
2006-02-25, 01:33:01,VALID,915.768,VALID,0.2,VALID,100,VALID,-0.0339617,VALID,19.8544,VALID,236,VALID,0.329723,
2006-02-25, 01:34:01,VALID,915.752,VALID,0.2,VALID,100,VALID,-0.0339617,VALID,19.8474,VALID,235,VALID,0.680233,
2006-02-25, 01:35:00,VALID,915.741,VALID,0,VALID,100,VALID,-0.0679233,VALID,19.8444,VALID,238,VALID,0.949128,
2006-02-25, 01:36:01,VALID,915.73,VALID,0.2,VALID,100,VALID,-0.0169808,VALID,19.8476,VALID,245,VALID,0.548242,
2006-02-25, 01:37:01,VALID,915.732,VALID,0,VALID,100,VALID,-0.0169808,VALID,19.8374,VALID,245,VALID,0.245916,
2006-02-25, 01:38:01,VALID,915.707,VALID,0,VALID,100,VALID,0,VALID,19.8437,VALID,245,VALID,0.262305,
2006-02-25, 01:39:01,VALID,915.689,VALID,0,VALID,100,VALID,0,VALID,19.8345,VALID,245,VALID,0.330788,
2006-02-25, 01:40:01,VALID,915.657,VALID,0,VALID,100,VALID,0,VALID,19.8372,VALID,244,VALID,0.636364,
2006-02-25, 01:41:01,VALID,915.631,VALID,0,VALID,100,VALID,0.0169808,VALID,19.8412,VALID,201,VALID,0.772135,
2006-02-25, 01:42:01,VALID,915.607,VALID,0,VALID,100,VALID,0,VALID,19.8471,VALID,221,VALID,0.732986,
2006-02-25, 01:43:01,VALID,915.579,VALID,0.2,VALID,100,VALID,0,VALID,19.8342,VALID,243,VALID,0.645349,
2006-02-25, 01:44:01,VALID,915.565,VALID,0,VALID,100,VALID,0,VALID,19.8374,VALID,246,VALID,0.381177,
2006-02-25, 01:45:01,VALID,915.531,VALID,0,VALID,100,VALID,-0.0169808,VALID,19.8148,VALID,233,VALID,0.388368,
2006-02-25, 01:46:01,VALID,915.518,VALID,0,VALID,100,VALID,0.0169808,VALID,19.8307,VALID,215,VALID,0.110305,
2006-02-25, 01:47:01,VALID,915.487,VALID,0,VALID,100,VALID,-0.0169808,VALID,19.8272,VALID,215,VALID,0.0892857,
2006-02-25, 01:48:01,VALID,915.455,VALID,0,VALID,100,VALID,0,VALID,19.8474,VALID,215,VALID,0.0997869,
2006-02-25, 01:49:01,VALID,915.427,VALID,0,VALID,100,VALID,0.0169808,VALID,19.8407,VALID,215,VALID,0.030506,
2006-02-25, 01:50:01,VALID,915.413,VALID,0,VALID,100,VALID,0,VALID,19.8439,VALID,215,VALID,0,
2006-02-25, 01:51:01,VALID,915.384,VALID,0,VALID,100,VALID,0.0169808,VALID,19.8571,VALID,215,VALID,0,
2006-02-25, 01:52:01,VALID,915.36,VALID,0,VALID,100,VALID,-0.0169808,VALID,19.8598,VALID,215,VALID,0,
2006-02-25, 01:53:01,VALID,915.345,VALID,0,VALID,100,VALID,0.0339617,VALID,19.8665,VALID,202,VALID,0.0888445,
2006-02-25, 01:54:01,VALID,915.346,VALID,0,VALID,100,VALID,0.0169808,VALID,19.8765,VALID,177,VALID,0.35883,
2006-02-25, 01:55:01,VALID,915.33,VALID,0,VALID,100,VALID,0,VALID,19.8402,VALID,144,VALID,0.486049,
2006-02-25, 01:56:01,VALID,915.313,VALID,0,VALID,100,VALID,0,VALID,19.8377,VALID,126,VALID,0.487695,
2006-02-25, 01:57:01,VALID,915.303,VALID,0,VALID,100,VALID,-0.0169808,VALID,19.8213,VALID,116,VALID,0.500977,
2006-02-25, 01:58:01,VALID,915.288,VALID,0,VALID,100,VALID,-0.0509425,VALID,19.8317,VALID,116,VALID,0.575648,
2006-02-25, 01:59:00,VALID,915.264,VALID,0,VALID,100,VALID,0,VALID,19.7949,VALID,116,VALID,0.270167,
2006-02-25, 02:00:00,VALID,915.237,VALID,0,VALID,100,VALID,-0.0169808,VALID,19.8111,VALID,116,VALID,0.347747,
2006-02-25, 02:01:00,VALID,915.222,VALID,0,VALID,100,VALID,-0.0169808,VALID,19.8116,VALID,116,VALID,0.290661,
2006-02-25, 02:02:00,VALID,915.205,VALID,0,VALID,100,VALID,0.0169808,VALID,19.825,VALID,116,VALID,0,
2006-02-25, 02:03:00,VALID,915.193,VALID,0,VALID,100,VALID,0.0169808,VALID,19.8277,VALID,116,VALID,0.197856,
2006-02-25, 02:04:00,VALID,915.19,VALID,0,VALID,100,VALID,-0.0169808,VALID,19.8081,VALID,116,VALID,0.164063,
2006-02-25, 02:05:00,VALID,915.176,VALID,0,VALID,100,VALID,0.0169808,VALID,19.8148,VALID,116,VALID,0.0180288,
2006-02-25, 02:06:00,VALID,915.168,VALID,0,VALID,100,VALID,0.0169808,VALID,19.825,VALID,116,VALID,0,
2006-02-25, 02:07:00,VALID,915.16,VALID,0,VALID,100,VALID,0,VALID,19.821,VALID,116,VALID,0,
2006-02-25, 02:08:00,VALID,915.136,VALID,0,VALID,100,VALID,0.0509425,VALID,19.8275,VALID,116,VALID,0,
2006-02-25, 02:09:00,VALID,915.119,VALID,0,VALID,100,VALID,0.0169808,VALID,19.8146,VALID,116,VALID,0,
2006-02-25, 02:10:00,VALID,915.097,VALID,0,VALID,100,VALID,0.0679233,VALID,19.8205,VALID,116,VALID,0,
2006-02-25, 02:11:00,VALID,915.09,VALID,0,VALID,100,VALID,0.0679233,VALID,19.824,VALID,116,VALID,0,
2006-02-25, 02:12:00,VALID,915.067,VALID,0,VALID,100,VALID,0.0169808,VALID,19.827,VALID,116,VALID,0,
2006-02-25, 02:13:00,VALID,915.059,VALID,0,VALID,100,VALID,0.0339617,VALID,19.8275,VALID,116,VALID,0,
2006-02-25, 02:14:00,VALID,915.059,VALID,0,VALID,100,VALID,0.0169808,VALID,19.8173,VALID,116,VALID,0,
2006-02-25, 02:15:00,VALID,915.047,VALID,0,VALID,100,VALID,0.0509425,VALID,19.8277,VALID,116,VALID,0.0194444,
2006-02-25, 02:16:00,VALID,915.056,VALID,0,VALID,100,VALID,0,VALID,19.8302,VALID,116,VALID,0,
2006-02-25, 02:17:00,VALID,915.04,VALID,0,VALID,100,VALID,0.0339617,VALID,19.8367,VALID,116,VALID,0.00410156,
2006-02-25, 02:18:00,VALID,915.043,VALID,0,VALID,100,VALID,0.0169808,VALID,19.8434,VALID,116,VALID,0.0351563,
2006-02-25, 02:19:00,VALID,915.036,VALID,0,VALID,100,VALID,0.0339617,VALID,19.8429,VALID,116,VALID,0.110973,
2006-02-25, 02:20:00,VALID,915.026,VALID,0,VALID,100,VALID,0.0339617,VALID,19.8302,VALID,116,VALID,0.00527344,
2006-02-25, 02:21:00,VALID,915.015,VALID,0,VALID,100,VALID,0,VALID,19.8369,VALID,116,VALID,0.0995164,
2006-02-25, 02:22:00,VALID,915.011,VALID,0,VALID,100,VALID,0.0169808,VALID,19.827,VALID,116,VALID,0.114583,
2006-02-25, 02:23:00,VALID,914.994,VALID,0,VALID,100,VALID,0.0339617,VALID,19.827,VALID,166,VALID,0.24201,
2006-02-25, 02:24:00,VALID,915.002,VALID,0,VALID,100,VALID,0.0339617,VALID,19.8305,VALID,182,VALID,0.0606831,
2006-02-25, 02:25:00,VALID,914.997,VALID,0,VALID,100,VALID,0.0339617,VALID,19.8471,VALID,182,VALID,0.00109012,
2006-02-25, 02:26:00,VALID,914.99,VALID,0,VALID,100,VALID,-0.0169808,VALID,19.8402,VALID,182,VALID,0.110618,
2006-02-25, 02:27:00,VALID,914.965,VALID,0,VALID,100,VALID,0.0509425,VALID,19.8511,VALID,182,VALID,0.38536,
2006-02-25, 02:28:00,VALID,914.949,VALID,0,VALID,100,VALID,0,VALID,19.8342,VALID,182,VALID,0.177827,
2006-02-25, 02:29:00,VALID,914.928,VALID,0,VALID,100,VALID,0.0509425,VALID,19.8208,VALID,182,VALID,0.371366,
2006-02-25, 02:30:00,VALID,914.932,VALID,0,VALID,100,VALID,0.0679233,VALID,19.8243,VALID,182,VALID,0.183854,
2006-02-25, 02:31:00,VALID,914.928,VALID,0,VALID,100,VALID,0,VALID,19.8215,VALID,182,VALID,0.341372,
2006-02-25, 02:32:00,VALID,914.914,VALID,0,VALID,100,VALID,0.0169808,VALID,19.8019,VALID,182,VALID,0.249112,
2006-02-25, 02:33:00,VALID,914.896,VALID,0,VALID,100,VALID,-0.0169808,VALID,19.8116,VALID,182,VALID,0.0419695,
2006-02-25, 02:34:00,VALID,914.89,VALID,0,VALID,100,VALID,0,VALID,19.8051,VALID,182,VALID,0.158067,
2006-02-25, 02:35:00,VALID,914.881,VALID,0,VALID,100,VALID,0.0169808,VALID,19.8019,VALID,182,VALID,0.0950521,
2006-02-25, 02:36:00,VALID,914.871,VALID,0,VALID,100,VALID,0.0679233,VALID,19.8019,VALID,182,VALID,0.144709,
2006-02-25, 02:37:00,VALID,914.863,VALID,0,VALID,100,VALID,0.0169808,VALID,19.8046,VALID,182,VALID,0.22923,
2006-02-25, 02:38:00,VALID,914.867,VALID,0,VALID,100,VALID,0.0339617,VALID,19.7917,VALID,182,VALID,0.0561756,
2006-02-25, 02:39:00,VALID,914.84,VALID,0,VALID,100,VALID,0.0339617,VALID,19.8086,VALID,182,VALID,0,
2006-02-25, 02:40:00,VALID,914.828,VALID,0,VALID,100,VALID,0,VALID,19.8049,VALID,182,VALID,0,
2006-02-25, 02:41:00,VALID,914.808,VALID,0,VALID,100,VALID,0,VALID,19.8086,VALID,182,VALID,0.226926,
2006-02-25, 02:42:00,VALID,914.8,VALID,0,VALID,100,VALID,0,VALID,19.8188,VALID,182,VALID,0.0820313,
2006-02-25, 02:43:00,VALID,914.77,VALID,0,VALID,100,VALID,0.0339617,VALID,19.8084,VALID,182,VALID,0.0959302,
2006-02-25, 02:44:00,VALID,914.753,VALID,0,VALID,100,VALID,0.0169808,VALID,19.8176,VALID,182,VALID,0.185501,
2006-02-25, 02:45:00,VALID,914.735,VALID,0,VALID,100,VALID,0,VALID,19.8111,VALID,182,VALID,0.200581,
2006-02-25, 02:46:00,VALID,914.718,VALID,0,VALID,100,VALID,0.0509425,VALID,19.8108,VALID,182,VALID,0.156064,
2006-02-25, 02:47:00,VALID,914.715,VALID,0,VALID,100,VALID,0.0509425,VALID,19.8111,VALID,182,VALID,0.129972,
2006-02-25, 02:48:00,VALID,914.712,VALID,0,VALID,100,VALID,0.0509425,VALID,19.7982,VALID,182,VALID,0.0851935,
2006-02-25, 02:49:00,VALID,914.703,VALID,0,VALID,100,VALID,0,VALID,19.8014,VALID,182,VALID,0,
2006-02-25, 02:50:00,VALID,914.692,VALID,0,VALID,100,VALID,0.0339617,VALID,19.8084,VALID,182,VALID,0,
2006-02-25, 02:51:00,VALID,914.683,VALID,0,VALID,100,VALID,-0.0169808,VALID,19.8146,VALID,182,VALID,0,
2006-02-25, 02:52:00,VALID,914.677,VALID,0,VALID,100,VALID,0,VALID,19.8111,VALID,182,VALID,0,
2006-02-25, 02:53:00,VALID,914.663,VALID,0,VALID,100,VALID,0.0169808,VALID,19.8345,VALID,182,VALID,0,
2006-02-25, 02:54:00,VALID,914.656,VALID,0,VALID,100,VALID,0.0339617,VALID,19.824,VALID,182,VALID,0.0230469,
2006-02-25, 02:55:00,VALID,914.662,VALID,0,VALID,100,VALID,0.0339617,VALID,19.8501,VALID,182,VALID,0,
2006-02-25, 02:56:00,VALID,914.651,VALID,0,VALID,100,VALID,0.0339617,VALID,19.8369,VALID,182,VALID,0.0317708,
2006-02-25, 02:57:00,VALID,914.645,VALID,0,VALID,100,VALID,0,VALID,19.8504,VALID,182,VALID,0,
2006-02-25, 02:58:00,VALID,914.637,VALID,0,VALID,100,VALID,0.0509425,VALID,19.8529,VALID,182,VALID,0.041061,
2006-02-25, 02:59:00,VALID,914.641,VALID,0,VALID,100,VALID,0,VALID,19.87,VALID,182,VALID,0.169271,
2006-02-25, 03:00:00,VALID,914.64,VALID,0,VALID,100,VALID,0.0339617,VALID,19.8631,VALID,182,VALID,0.0464939,
2006-02-25, 03:01:00,VALID,914.648,VALID,0,VALID,100,VALID,0.0339617,VALID,19.8534,VALID,182,VALID,0.0223474,
2006-02-25, 03:02:00,VALID,914.656,VALID,0,VALID,100,VALID,0.0169808,VALID,19.8534,VALID,182,VALID,0.159884,
2006-02-25, 03:03:00,VALID,914.655,VALID,0,VALID,100,VALID,0,VALID,19.8563,VALID,182,VALID,0.0063244,
2006-02-25, 03:04:00,VALID,914.65,VALID,0,VALID,100,VALID,0.0169808,VALID,19.8466,VALID,182,VALID,0.0199033,
2006-02-25, 03:05:00,VALID,914.649,VALID,0,VALID,100,VALID,0,VALID,19.8536,VALID,182,VALID,0.0890625,
2006-02-25, 03:06:00,VALID,914.651,VALID,0,VALID,100,VALID,0,VALID,19.8638,VALID,182,VALID,0,
2006-02-25, 03:07:00,VALID,914.641,VALID,0,VALID,100,VALID,-0.0169808,VALID,19.8636,VALID,182,VALID,0.0182292,
2006-02-25, 03:08:00,VALID,914.645,VALID,0,VALID,100,VALID,-0.0169808,VALID,19.8439,VALID,182,VALID,0.12314,
2006-02-25, 03:09:00,VALID,914.631,VALID,0,VALID,100,VALID,-0.0169808,VALID,19.8504,VALID,182,VALID,0.0777439,
2006-02-25, 03:10:00,VALID,914.642,VALID,0,VALID,100,VALID,0.0169808,VALID,19.8407,VALID,182,VALID,0.301067,
2006-02-25, 03:11:00,VALID,914.626,VALID,0,VALID,100,VALID,0,VALID,19.8345,VALID,182,VALID,0.0579268,
2006-02-25, 03:12:00,VALID,914.623,VALID,0,VALID,100,VALID,0.0339617,VALID,19.8345,VALID,182,VALID,0.0337434,
2006-02-25, 03:13:00,VALID,914.623,VALID,0,VALID,100,VALID,0,VALID,19.835,VALID,175,VALID,0.494665,
2006-02-25, 03:14:00,VALID,914.608,VALID,0,VALID,100,VALID,-0.0339617,VALID,19.8024,VALID,168,VALID,0.148438,
2006-02-25, 03:15:00,VALID,914.602,VALID,0,VALID,100,VALID,-0.0339617,VALID,19.7793,VALID,148,VALID,0.368118,
2006-02-25, 03:16:00,VALID,914.605,VALID,0,VALID,100,VALID,0,VALID,19.7532,VALID,147,VALID,0.111471,
2006-02-25, 03:17:00,VALID,914.601,VALID,0,VALID,100,VALID,0.0169808,VALID,19.7435,VALID,160,VALID,0.0796131,
2006-02-25, 03:18:00,VALID,914.606,VALID,0,VALID,100,VALID,0.0679233,VALID,19.7469,VALID,164,VALID,0.217607,
2006-02-25, 03:19:00,VALID,914.585,VALID,0,VALID,100,VALID,0,VALID,19.7442,VALID,164,VALID,0.217535,
2006-02-25, 03:20:00,VALID,914.584,VALID,0,VALID,100,VALID,0,VALID,19.7238,VALID,159,VALID,0.313244,
2006-02-25, 03:21:00,VALID,914.576,VALID,0,VALID,100,VALID,0.0169808,VALID,19.7047,VALID,148,VALID,0.612043,
2006-02-25, 03:22:00,VALID,914.574,VALID,0,VALID,100,VALID,0,VALID,19.6788,VALID,148,VALID,0.501302,
2006-02-25, 03:23:00,VALID,914.561,VALID,0,VALID,100,VALID,-0.0169808,VALID,19.6791,VALID,169,VALID,0.279119,
2006-02-25, 03:24:00,VALID,914.567,VALID,0,VALID,100,VALID,0,VALID,19.6756,VALID,186,VALID,0.477679,
2006-02-25, 03:25:00,VALID,914.572,VALID,0,VALID,100,VALID,0,VALID,19.695,VALID,190,VALID,0.0756392,
2006-02-25, 03:26:00,VALID,914.569,VALID,0,VALID,100,VALID,-0.0169808,VALID,19.6982,VALID,190,VALID,0.205669,
2006-02-25, 03:27:00,VALID,914.577,VALID,0,VALID,100,VALID,0,VALID,19.6816,VALID,190,VALID,0.267857,
2006-02-25, 03:28:00,VALID,914.587,VALID,0,VALID,100,VALID,0,VALID,19.7009,VALID,190,VALID,0.218229,
2006-02-25, 03:29:00,VALID,914.6,VALID,0,VALID,100,VALID,0,VALID,19.6952,VALID,190,VALID,0,
2006-02-25, 03:30:00,VALID,914.6,VALID,0,VALID,100,VALID,0,VALID,19.7109,VALID,190,VALID,0,
2006-02-25, 03:31:00,VALID,914.588,VALID,0,VALID,100,VALID,0,VALID,19.7343,VALID,190,VALID,0.0146723,
2006-02-25, 03:32:00,VALID,914.571,VALID,0,VALID,100,VALID,-0.0169808,VALID,19.7574,VALID,190,VALID,0.156783,
2006-02-25, 03:33:00,VALID,914.577,VALID,0,VALID,100,VALID,0.0339617,VALID,19.7569,VALID,190,VALID,0.190104,
2006-02-25, 03:34:00,VALID,914.566,VALID,0,VALID,100,VALID,-0.0339617,VALID,19.734,VALID,203,VALID,0.286632,
2006-02-25, 03:35:00,VALID,914.563,VALID,0,VALID,100,VALID,0,VALID,19.7275,VALID,213,VALID,0.0615234,
2006-02-25, 03:36:00,VALID,914.574,VALID,0,VALID,100,VALID,-0.0169808,VALID,19.7179,VALID,213,VALID,0,
2006-02-25, 03:37:00,VALID,914.581,VALID,0,VALID,100,VALID,0,VALID,19.7273,VALID,213,VALID,0,
2006-02-25, 03:38:00,VALID,914.589,VALID,0,VALID,100,VALID,-0.0169808,VALID,19.7273,VALID,213,VALID,0,
2006-02-25, 03:39:00,VALID,914.598,VALID,0,VALID,100,VALID,0,VALID,19.7534,VALID,213,VALID,0.456287,
2006-02-25, 03:40:00,VALID,914.591,VALID,0,VALID,100,VALID,0,VALID,19.7464,VALID,313,VALID,0.65532,
2006-02-25, 03:41:00,VALID,914.572,VALID,0,VALID,100,VALID,0,VALID,19.7691,VALID,27,VALID,0.440104,
2006-02-25, 03:42:00,VALID,914.557,VALID,0,VALID,100,VALID,0.0339617,VALID,19.7631,VALID,27,VALID,0.0874619,
2006-02-25, 03:43:00,VALID,914.538,VALID,0,VALID,100,VALID,0,VALID,19.7793,VALID,27,VALID,0,
2006-02-25, 03:44:00,VALID,914.517,VALID,0,VALID,100,VALID,-0.0169808,VALID,19.779,VALID,27,VALID,0.120908,
2006-02-25, 03:45:00,VALID,914.501,VALID,0,VALID,100,VALID,0.0169808,VALID,19.7728,VALID,90,VALID,0.494048,
2006-02-25, 03:46:00,VALID,914.493,VALID,0,VALID,100,VALID,-0.0339617,VALID,19.773,VALID,154,VALID,0.384375,
2006-02-25, 03:47:00,VALID,914.491,VALID,0,VALID,100,VALID,-0.0169808,VALID,19.7534,VALID,154,VALID,0.0518973,